Location: Unspecified
(0.0000°N, 0.0000°E)
Time: 02:43:36
(UTC+00:00)

N. Korean satellite - Pass Details

Date: 23 September 2022
Orbit: 427 x 468 km, 97.3° (Epoch: 25 September)

Event Time Altitude Azimuth Distance (km) Brightness Sun altitude
Rises 05:08:43 0° 359° (N) 2,375 10.1 -10.9°
Reaches altitude 10° 05:10:48 10° 351° (N) 1,513 9.0 -10.4°
Maximum altitude 05:13:49 38° 281° (W) 669 6.8 -9.7°
Drops below altitude 10° 05:16:53 10° 211° (SSW) 1,527 8.8 -8.9°
Sets 05:18:59 0° 203° (SSW) 2,401 9.9 -8.4°
